"Pseudo-MPEC" for JKt002

Created 2024 Dec 2 20:31:23 UT using Find_Orb

Click here for an explanation of pseudo-MPECs

 
 Astrometry: 
     JKt002 *3C2024 11 28.61976613 01 58.733-02 37 34.54   ~BT02 22.4 rVNEOCPT09
     JKt002  3C2024 11 28.63008013 02 00.835-02 37 46.31   ~BT02 22.3 rVNEOCPT09
     JKt002  3C2024 11 28.63102313 02 01.018-02 37 47.46   ~BT02 22.6 rVNEOCPT09
     JKt002  3C2024 11 28.64131013 02 03.108-02 37 59.23   ~BT02 23.1 rVNEOCPT09
     JKt002  3C2024 11 28.64224813 02 03.300-02 38 00.31   ~BT02 23.0 rVNEOCPT09
     JKt002  3C2024 11 29.63780613 05 28.940-02 57 05.40   ~BTGH 22.60GVNEOCPT14
     JKt002  3C2024 11 29.63901513 05 29.182-02 57 06.76   ~BTGH 22.57GVNEOCPT14
     JKt002  3C2024 11 29.64022413 05 29.431-02 57 08.18   ~BTGH 22.62GVNEOCPT14
     JKt002  3C2024 12 01.65017613 12 30.694-03 36 26.15   ~C1GH 23.30GVNEOCPT14
     JKt002  3C2024 12 01.65138413 12 30.936-03 36 27.58   ~C1GH 23.11GVNEOCPT14
     JKt002  3C2024 12 01.65260313 12 31.170-03 36 28.81   ~C1GH 22.71GVNEOCPT14

Station data:
(T09) Mauna Kea-UH/Tholen NEO Follow-Up (Subaru)  (N19.825504 W155.476019)
   US/Hawaii.  Observer J. Kleyna. 8.2-m f/2.2 Subaru reflector.
(T14) Mauna Kea-UH/Tholen NEO Follow-Up (CFHT)  (N19.825252 W155.468876)
   US/Hawaii.  Observer R. Weryk. 3.6-m Canada-France-Hawaii Telescope.

Orbital elements:  JKt002
   Perihelion 2024 Sep 6.04744 +/- 0.526 TT =  1:08:19 (JD 2460559.54744)
Epoch 2024 Dec  1.0 TT = JDT 2460645.5   Earth MOID: 0.2077   Ve: 0.0095
M 150.27519783 +/- 0.16             (J2000 ecliptic)             AutoNEOCP
n   1.74835049 +/- 0.0104           Peri.  263.54218 +/- 0.15
a   0.68241785 +/- 0.0027           Node    51.18408 +/- 0.19
e   0.1513347 +/- 0.00573           Incl.    3.75943 +/- 0.022
P   0.564/205.904d         H 21.38  G  0.15   U  9.7
q 0.57914429 +/- 0.0062    Q 0.78569141 +/- 0.000831
From 11 observations 2024 Nov. 28-Dec. 1; mean residual 0".09
Residuals in arcseconds: 
241128 T09  .10-  .01+    241128 T09  .07+  .02-    241201 T14  .19+  .08-    
241128 T09  .06+  .05+    241129 T14  .04+  .02-    241201 T14  .05+  .07-    
241128 T09  .06-  .02-    241129 T14  .04-  .02+    241201 T14  .25-  .15+    
241128 T09  .04+  .01-    241129 T14  .01-  .01+    

Ephemerides (geocentric):
Date (UTC) HH   RA             Dec           delta  r     elong  mag " sig PA
---- --------  ------------   ------------  ------ ------ -----  --- --------
2024 12 02 21  13 16 50.734   -04 00 45.68  .68922 .77744  51.7 23.0 .339  72
2024 12 02 22  13 16 59.653   -04 01 35.84  .68940 .77749  51.7 23.0 .349  72
2024 12 02 23  13 17 08.576   -04 02 26.03  .68958 .77753  51.7 23.0 .359  71
2024 12 03 00  13 17 17.501   -04 03 16.23  .68976 .77758  51.7 23.0 .369  70
2024 12 03 01  13 17 26.431   -04 04 06.46  .68994 .77762  51.7 23.0 .379  70
2024 12 03 02  13 17 35.363   -04 04 56.71  .69012 .77767  51.7 23.0 .390  69
2024 12 03 03  13 17 44.299   -04 05 46.98  .69030 .77771  51.7 23.0 .400  69
2024 12 03 04  13 17 53.239   -04 06 37.28  .69048 .77775  51.7 23.0 .411  68
2024 12 03 05  13 18 02.181   -04 07 27.59  .69066 .77780  51.7 23.0 .422  68
2024 12 03 06  13 18 11.127   -04 08 17.93  .69084 .77784  51.7 23.0 .434  67
2024 12 03 07  13 18 20.077   -04 09 08.29  .69102 .77789  51.7 23.0 .445  67
2024 12 03 08  13 18 29.030   -04 09 58.67  .69120 .77793  51.7 23.0 .457  67
2024 12 03 09  13 18 37.986   -04 10 49.07  .69138 .77797  51.7 23.0 .469  66
2024 12 03 10  13 18 46.946   -04 11 39.49  .69156 .77802  51.7 23.0 .481  66
2024 12 03 11  13 18 55.909   -04 12 29.93  .69173 .77806  51.7 23.0 .493  66
2024 12 03 12  13 19 04.875   -04 13 20.40  .69191 .77811  51.7 23.0 .506  65
2024 12 03 13  13 19 13.845   -04 14 10.89  .69209 .77815  51.7 23.0 .518  65
2024 12 03 14  13 19 22.818   -04 15 01.39  .69227 .77819  51.7 23.0 .531  65
2024 12 03 15  13 19 31.794   -04 15 51.92  .69245 .77823  51.7 23.0 .544  64
2024 12 03 16  13 19 40.774   -04 16 42.47  .69263 .77828  51.7 23.0 .557  64
2024 12 03 17  13 19 49.757   -04 17 33.04  .69281 .77832  51.7 23.0 .571  64
2024 12 03 18  13 19 58.744   -04 18 23.63  .69299 .77836  51.7 23.0 .584  64
2024 12 03 19  13 20 07.734   -04 19 14.24  .69317 .77841  51.7 23.0 .598  63
2024 12 03 20  13 20 16.727   -04 20 04.87  .69335 .77845  51.7 23.0 .612  63
2024 12 03 21  13 20 25.724   -04 20 55.53  .69352 .77849  51.7 23.0 .626  63
2024 12 03 22  13 20 34.723   -04 21 46.20  .69370 .77853  51.7 23.0 .641  63
2024 12 03 23  13 20 43.727   -04 22 36.89  .69388 .77857  51.8 23.0 .655  62
2024 12 04 00  13 20 52.734   -04 23 27.61  .69406 .77862  51.8 23.0 .670  62
2024 12 04 01  13 21 01.744   -04 24 18.34  .69424 .77866  51.8 23.0 .685  62
2024 12 04 02  13 21 10.757   -04 25 09.10  .69442 .77870  51.8 23.0 .700  62
2024 12 04 03  13 21 19.774   -04 25 59.87  .69459 .77874  51.8 23.0 .716  62
2024 12 04 04  13 21 28.794   -04 26 50.67  .69477 .77878  51.8 23.0 .731  62
2024 12 04 05  13 21 37.817   -04 27 41.49  .69495 .77882  51.8 23.0 .747  62
2024 12 04 06  13 21 46.844   -04 28 32.32  .69513 .77887  51.8 23.0 .763  61
2024 12 04 07  13 21 55.874   -04 29 23.18  .69531 .77891  51.8 23.0 .779  61
2024 12 04 08  13 22 04.908   -04 30 14.05  .69548 .77895  51.8 23.0 .796  61
2024 12 04 09  13 22 13.945   -04 31 04.95  .69566 .77899  51.8 23.0 .812  61
2024 12 04 10  13 22 22.985   -04 31 55.87  .69584 .77903  51.8 23.0 .829  61
2024 12 04 11  13 22 32.028   -04 32 46.80  .69602 .77907  51.8 23.0 .846  61
2024 12 04 12  13 22 41.075   -04 33 37.76  .69619 .77911  51.8 23.0 .863  61
2024 12 04 13  13 22 50.125   -04 34 28.73  .69637 .77915  51.8 23.0 .880  61
2024 12 04 14  13 22 59.179   -04 35 19.73  .69655 .77919  51.8 23.0 .898  61
2024 12 04 15  13 23 08.236   -04 36 10.74  .69673 .77923  51.8 23.0 .915  61
2024 12 04 16  13 23 17.296   -04 37 01.78  .69690 .77927  51.8 23.0 .933  61
2024 12 04 17  13 23 26.360   -04 37 52.83  .69708 .77931  51.8 23.0 .951  60
2024 12 04 18  13 23 35.427   -04 38 43.90  .69726 .77935  51.8 23.0 .970  60
2024 12 04 19  13 23 44.497   -04 39 35.00  .69743 .77939  51.8 23.0 .988  60
2024 12 04 20  13 23 53.571   -04 40 26.11  .69761 .77943  51.8 23.0 1.01  60